Flag for Netherlands Weather past 2 weeks in Kralendijk, Bonaire, Netherlands

Now
81 °F

Warm.


Feels Like: 85 °F
Forecast: 78 / 86 °F
Wind: 15 mph from East

Location: Flamingo Airport - Bonaire

Current Time: Apr 1, 2015 at 8:30:09 PM

Latest Report: Apr 1, 2015 at 8:00 PM


Visibility: N/A

Pressure: 29.92 "Hg

Humidity: 74%

Dew point: 72 °F

Location of KralendijkLocation

Historic Weather in Kralendijk — Graph

°F

Kralendijk temperature yesterday

Maximum temperature yesterday: 86 °F (at 12:00 PM)
Minimum temperature yesterday: 77 °F (at 5:00 AM)
Average temperature yesterday: 81 °F

Past Weeks' High & Low Weather Summary

 TemperatureHumidityPressure
High88 °F (Mar 20, 12:00 PM)88% (Mar 22, 3:00 AM)30.04 "Hg (Mar 22, 3:00 AM)
Low70 °F (Mar 22, 6:00 AM)55% (Mar 21, 3:00 PM)29.83 "Hg (Mar 18, 6:00 PM)
Average81 °F73%29.95 "Hg
* Reported Mar 17 7:00 PM — Apr 1 7:00 PM, Kralendijk, Weather by CustomWeather, © 2015

Note: Actual official high and low records may vary slightly from our data, if they occured in-between our weather recording intervals... More about our weather records

Advertising

Kralendijk weather history for previous 24 hours

 ConditionsComfort  
Time TempWeatherWind HumidityBarometerVisibility
7:00 PM
Wed, Apr 1
81 °FWarm.15 mph70%29.89 "HgN/A
6:00 PM81 °FPassing clouds.17 mph70%29.89 "HgN/A
5:00 PM82 °FWarm.17 mph70%29.86 "HgN/A
4:00 PM84 °FPassing clouds.20 mph66%29.89 "HgN/A
3:00 PM86 °FWarm.18 mph62%29.89 "HgN/A
2:00 PM84 °FWarm.20 mph62%29.92 "HgN/A
1:00 PM86 °FWarm.20 mph62%29.95 "HgN/A
12:00 PM86 °FPassing clouds.21 mph62%29.98 "HgN/A
11:00 AM86 °FWarm.20 mph62%30.01 "HgN/A
10:00 AM84 °FScattered clouds.21 mph66%30.01 "HgN/A
9:00 AM82 °FScattered clouds.20 mph70%29.98 "HgN/A
8:00 AM81 °FWarm.17 mph74%29.98 "HgN/A
7:00 AM79 °FWarm.15 mph74%29.95 "HgN/A
6:00 AM79 °FWarm.12 mph74%29.92 "HgN/A
5:00 AM79 °FWarm.14 mph74%29.92 "HgN/A
4:00 AM79 °FWarm.15 mph74%29.89 "HgN/A
3:00 AM79 °FWarm.12 mph74%29.92 "HgN/A
2:00 AM79 °FWarm.15 mph74%29.92 "HgN/A
1:00 AM79 °FWarm.16 mph74%29.92 "HgN/A
12:00 AM79 °FWarm.16 mph74%29.95 "HgN/A
11:00 PM
Tue, Mar 31
79 °FWarm.16 mph74%29.95 "HgN/A
10:00 PM79 °FWarm.15 mph79%29.95 "HgN/A
9:00 PM79 °FWarm.18 mph79%29.92 "HgN/A
8:00 PM79 °FPassing clouds.17 mph74%29.89 "HgN/A
Weather by CustomWeather, © 2015

See weather overviewHow to use our weather pages